Track SNAP-3 ALICE now! 10-day predictions SNAP-3 ALICE is classified as:
1 40970U 15058G 25170.39757545 .00017704 00000-0 72375-3 0 9995 2 40970 64.7650 233.0139 0083176 192.8972 167.0029 15.21301570 61168